Location: Melara
(45.0500°N, 11.1833°E)
Time: 22:04:47
(UTC+00:00)

Cosmos 2298 Rocket - Pass Details

Date: 26 May 2022
Orbit: 775 x 784 km, 74.0° (Epoch: 03 July)

Event Time Altitude Azimuth Distance (km) Brightness Sun altitude
Exits shadow 00:07:44 55° 212° (SSW) 929 4.0 -22.7°
Maximum altitude 00:08:55 82° 291° (WNW) 789 4.0 -22.6°
Drops below altitude 10° 00:14:15 10° 20° (NNE) 2,337 7.6 -22.4°
Sets 00:16:39 0° 21° (NNE) 3,270 8.8 -22.3°
